Location: Allie Creek
(37.5926°N, 89.8526°W)
Time: 00:18:27
(UTC+00:00)

Meteor 1-27 Rocket - Pass Details

Date: 15 April 2024
Orbit: 829 x 909 km, 81.3° (Epoch: 28 May)

Event Time Altitude Azimuth Distance (km) Brightness Sun altitude
Exits shadow 09:41:01 30° 272° (W) 1,530 4.6 -19.7°
Maximum altitude 09:41:43 31° 286° (WNW) 1,501 4.6 -19.6°
Drops below altitude 10° 09:46:45 10° 347° (NNW) 2,517 6.4 -18.7°
Sets 09:49:28 0° 358° (N) 3,445 7.3 -18.2°
